Date,TemperatureHighF,TemperatureAvgF,TemperatureLowF,DewpointHighF,DewpointAvgF,DewpointLowF,HumidityHigh,HumidityAvg,HumidityLow,PressureMaxIn,PressureMinIn,WindSpeedMaxMPH,WindSpeedAvgMPH,GustSpeedMaxMPH,PrecipitationSumIn
2014-1-1,64.1,54.1,45.2,44.1,38.7,32.0,87,59,34,30.22,30.13,4,1,5,0.00
2014-1-2,67.3,56.3,48.0,43.0,39.0,36.7,68,53,35,30.17,30.05,4,0,5,0.00
2014-1-3,72.3,57.2,49.4,45.7,40.6,35.8,73,55,28,30.07,29.95,5,0,5,0.00
2014-1-4,69.2,56.8,47.2,46.5,39.0,27.8,89,56,26,30.08,29.97,3,0,3,0.00
2014-1-5,69.8,57.5,48.2,36.4,26.4,21.2,49,32,17,30.19,30.07,5,0,5,0.00
2014-1-6,61.8,54.1,49.0,40.4,36.3,29.5,72,51,38,30.28,30.16,6,0,6,0.00
2014-1-7,61.9,54.1,48.4,52.3,42.4,32.0,95,66,44,30.21,30.12,8,1,8,0.00
2014-1-8,62.2,54.2,50.2,54.5,51.3,48.5,98,90,71,30.23,30.14,5,0,5,0.00
2014-1-9,64.5,54.8,48.9,54.7,48.0,41.0,97,79,54,30.26,30.17,6,0,7,0.00
2014-1-10,66.6,54.2,47.8,51.7,48.3,44.6,96,81,54,30.31,30.17,4,0,4,0.00
2014-1-11,54.7,51.5,48.6,54.3,50.0,47.5,99,95,87,30.29,30.16,15,2,18,0.00
2014-1-12,65.7,54.3,46.3,49.5,43.7,36.4,96,70,45,30.40,30.26,5,0,5,0.00
2014-1-13,66.2,56.3,47.4,45.6,41.2,37.8,76,58,44,30.46,30.33,4,0,5,0.00
2014-1-14,69.5,57.5,47.4,42.6,38.8,34.9,73,51,32,30.45,30.32,3,0,4,0.00
2014-1-15,71.2,60.4,52.1,44.2,37.5,32.8,64,44,26,30.34,30.19,6,0,6,0.00
2014-1-16,71.5,60.8,51.9,41.2,36.2,28.9,59,41,28,30.23,30.12,6,0,6,0.00
2014-1-17,66.9,58.1,50.4,45.8,39.4,34.0,72,51,36,30.18,30.10,5,0,6,0.00
2014-1-18,69.8,58.5,49.5,39.1,34.8,30.3,60,42,24,30.17,30.06,6,0,6,0.00
2014-1-19,65.3,56.9,49.6,42.5,37.7,32.6,64,49,38,30.13,30.05,6,1,6,0.00
2014-1-20,70.0,57.9,49.5,39.0,34.9,30.5,61,43,26,30.22,30.10,3,0,5,0.00
2014-1-21,73.5,58.1,48.8,39.8,32.8,27.1,60,40,20,30.26,30.15,4,0,4,0.00
2014-1-22,72.0,59.0,50.0,41.5,34.0,23.6,61,40,23,30.17,29.91,9,1,10,0.00
2014-1-23,71.3,58.3,50.5,49.8,39.1,29.8,92,54,25,30.01,29.86,6,1,8,0.00
2014-1-24,68.3,58.1,51.8,51.8,46.8,37.3,90,67,39,30.27,30.00,10,2,10,0.00
2014-1-25,75.0,61.3,50.5,50.3,38.5,27.6,85,47,19,30.27,30.11,4,0,5,0.00
2014-1-26,70.2,57.6,49.1,51.0,42.2,32.5,97,60,32,30.12,30.02,14,2,15,0.00
2014-1-27,59.9,52.1,46.8,52.7,49.8,46.3,99,92,77,30.19,30.06,12,2,12,0.00
2014-1-28,67.0,57.3,52.5,59.8,55.1,49.7,99,93,73,30.27,30.18,9,2,10,0.00
2014-1-29,58.3,56.6,54.1,58.0,55.6,49.1,99,97,79,30.20,29.98,15,3,16,0.00
2014-1-30,66.3,55.1,51.4,53.3,49.2,45.2,96,82,56,29.99,29.84,10,1,11,0.02
2014-1-31,66.3,53.6,46.6,46.5,40.5,31.8,89,64,29,30.08,29.90,11,1,11,0.00
2014-2-1,59.1,49.8,43.0,45.4,38.8,31.3,91,67,37,30.17,30.05,14,2,15,0.00
2014-2-2,49.0,46.9,44.7,47.6,44.7,42.1,96,92,81,30.05,29.85,20,3,22,0.39
2014-2-3,61.8,49.0,41.3,47.2,42.0,38.3,98,78,51,30.08,29.99,10,0,10,0.01
2014-2-4,55.9,47.7,43.0,45.0,41.2,38.0,94,79,63,30.17,30.07,9,1,9,0.00
2014-2-5,53.6,47.6,42.5,46.8,42.7,38.4,97,84,64,30.21,30.06,14,2,14,0.13
2014-2-6,51.2,48.7,46.1,50.9,48.3,45.6,99,99,97,30.06,29.90,9,1,10,0.96
2014-2-7,54.9,52.5,50.9,54.6,52.0,50.0,99,98,96,30.09,29.97,33,11,37,0.61
2014-2-8,57.2,55.7,53.2,57.2,55.6,53.1,100,100,98,30.14,30.03,35,13,35,1.84
2014-2-9,57.6,57.0,55.1,57.6,57.0,55.1,100,100,100,30.14,30.05,29,12,31,1.51
2014-2-10,58.5,54.6,51.6,58.5,54.5,51.6,100,100,99,30.28,30.09,17,2,20,0.00
2014-2-11,58.2,52.2,49.2,55.4,51.3,49.1,100,97,85,30.25,30.17,10,1,10,0.01
2014-2-12,60.7,53.1,48.8,55.7,51.7,48.5,100,95,82,30.28,30.18,7,1,7,0.01
2014-2-13,70.8,58.4,52.4,62.2,56.3,52.3,100,94,71,30.23,30.09,5,0,6,0.00
2014-2-14,62.7,56.9,54.4,60.8,55.5,52.9,100,95,84,30.17,30.05,10,2,10,0.00
2014-2-15,57.2,54.9,53.3,56.0,54.4,53.0,100,98,91,30.05,29.99,25,6,25,0.04
2014-2-16,65.3,55.1,47.3,55.7,47.7,39.8,100,79,45,30.22,30.03,9,0,9,0.00
2014-2-17,64.9,54.7,47.0,50.1,46.6,43.1,97,76,48,30.18,30.09,5,0,6,0.00
2014-2-18,62.9,55.1,49.0,55.0,49.7,46.6,95,83,69,30.20,30.09,10,1,10,0.00
2014-2-19,67.9,57.8,51.4,54.5,48.4,41.1,98,73,47,30.20,30.09,14,1,15,0.00
2014-2-20,68.2,56.1,46.4,49.0,43.9,37.8,91,66,36,30.22,30.11,7,0,8,0.00
2014-2-21,72.8,58.5,50.0,51.6,46.7,40.9,94,67,38,30.12,29.98,14,1,14,0.00
2014-2-22,67.5,56.4,49.8,55.3,49.6,45.8,98,80,50,30.02,29.92,13,2,13,0.00
2014-2-23,70.0,55.6,46.9,56.2,50.7,46.4,99,85,58,30.03,29.95,7,1,8,0.00
2014-2-24,74.0,57.5,49.2,55.7,50.6,47.1,98,80,45,30.00,29.91,12,1,13,0.00
2014-2-25,57.4,52.7,50.1,52.8,50.6,49.4,99,93,83,29.98,29.91,23,8,25,0.00
2014-2-26,57.7,55.7,53.6,57.1,54.0,50.4,99,94,83,29.96,29.67,31,8,32,1.09
2014-2-27,61.2,57.3,54.3,56.0,53.7,50.8,97,88,76,29.90,29.52,27,7,31,0.00
2014-2-28,59.1,55.3,53.0,55.6,53.1,51.0,99,93,80,29.52,29.37,27,6,30,1.41
2014-3-1,69.7,58.5,53.3,56.1,52.9,50.3,96,83,55,29.81,29.47,11,2,11,0.05
2014-3-2,57.7,55.5,53.5,55.8,53.9,51.3,99,94,83,30.16,29.81,20,5,21,0.04
2014-3-3,57.7,54.8,52.8,54.5,53.3,51.7,98,95,85,30.16,30.03,14,3,14,0.28
2014-3-4,61.7,56.3,53.2,58.9,55.4,52.3,99,97,87,30.13,30.05,7,1,7,0.12
2014-3-5,62.7,57.9,54.7,59.3,56.6,54.4,100,96,81,30.11,29.98,29,6,30,0.12
2014-3-6,62.9,57.0,52.8,58.1,54.8,48.7,100,93,78,30.19,30.05,15,3,16,0.01
2014-3-7,68.9,58.4,50.8,54.0,48.2,42.0,88,70,47,30.18,30.09,13,1,13,0.00
2014-3-8,71.8,60.8,51.2,59.5,51.0,40.4,99,73,40,30.20,30.10,4,0,4,0.00
2014-3-9,67.8,61.7,56.9,59.6,52.9,41.7,84,73,49,30.18,30.07,14,2,14,0.00
2014-3-10,74.2,61.4,52.9,56.5,51.1,44.8,98,72,41,30.23,30.09,11,2,13,0.03
2014-3-11,73.2,62.7,54.2,45.1,38.0,31.5,63,41,26,30.19,30.00,8,1,10,0.00
2014-3-12,78.4,66.4,58.6,40.3,33.1,26.1,46,30,18,30.09,29.99,5,1,8,0.00
2014-3-13,77.7,62.9,52.5,50.7,39.1,25.5,93,45,19,30.05,29.96,17,2,17,0.00
2014-3-14,69.8,58.8,49.4,55.6,51.7,48.0,97,79,55,30.22,30.04,8,2,9,0.00
2014-3-15,82.0,64.6,55.0,58.8,51.1,43.0,92,66,27,30.31,30.21,12,1,13,0.00
2014-3-16,73.9,61.5,52.6,58.4,51.0,43.8,93,70,40,30.30,30.18,10,1,10,0.00
2014-3-17,74.5,59.9,52.0,52.7,48.3,42.6,94,67,41,30.21,29.97,10,1,13,0.00
2014-3-18,75.7,61.0,50.4,47.2,37.8,23.6,82,45,21,29.98,29.90,11,1,14,0.00
2014-3-19,76.7,61.5,50.7,48.1,42.2,28.6,77,52,27,30.08,29.96,4,0,5,0.00
2014-3-20,72.0,60.9,50.1,56.1,46.4,31.9,87,61,36,30.04,29.93,12,1,13,0.00
2014-3-21,60.1,52.6,47.9,51.4,48.7,45.9,97,87,72,29.99,29.92,21,7,22,0.00
2014-3-22,62.2,53.9,48.6,52.0,48.7,46.6,95,83,65,30.11,29.98,19,5,19,0.00
2014-3-23,64.3,54.2,48.2,53.2,49.3,46.5,96,84,65,30.18,30.08,15,3,15,0.00
2014-3-24,73.4,58.2,50.1,57.1,49.9,38.8,98,76,47,30.16,30.01,9,2,10,0.00
2014-3-25,59.1,53.6,48.6,56.2,50.7,36.0,98,90,58,30.04,29.86,17,4,17,0.17
2014-3-26,60.9,54.6,50.2,54.7,52.2,48.2,98,92,73,29.97,29.79,29,6,29,0.43
2014-3-27,61.2,55.9,52.0,54.0,51.8,48.2,97,87,65,30.13,29.97,20,5,20,0.02
2014-3-28,65.7,58.1,54.4,56.2,54.3,53.1,98,88,68,30.19,30.10,25,8,25,0.00
2014-3-29,58.1,55.3,49.7,56.8,54.1,47.8,99,96,86,30.12,30.00,22,6,26,0.85
2014-3-30,59.4,53.1,48.2,51.3,47.8,45.7,94,83,65,30.13,30.03,22,4,22,0.00
2014-3-31,54.9,50.6,46.8,49.9,47.7,45.8,98,90,79,30.07,29.81,37,6,38,0.43
2014-4-1,56.9,49.6,45.8,50.1,46.6,43.8,98,90,69,29.93,29.83,26,5,26,0.47
2014-4-2,65.0,52.3,45.7,54.7,47.5,44.6,99,85,50,30.10,29.86,14,1,14,0.44
2014-4-3,59.8,53.2,47.3,50.5,48.6,44.6,97,85,60,30.12,30.03,19,5,21,0.00
2014-4-4,59.7,52.9,48.7,53.5,50.0,47.1,99,90,65,30.06,29.97,20,3,20,0.29
2014-4-5,71.7,57.2,47.5,56.5,49.2,45.6,94,76,50,30.19,30.05,9,1,10,0.00
2014-4-6,77.5,63.5,52.2,58.9,52.6,48.0,95,70,46,30.23,30.09,12,1,13,0.00
2014-4-7,83.8,69.9,59.1,59.5,54.7,48.2,85,61,40,30.15,30.05,4,0,4,0.00
2014-4-8,83.7,66.9,54.7,63.2,56.0,50.2,90,69,46,30.10,30.01,14,2,14,0.00
2014-4-9,65.2,55.3,50.3,55.9,52.3,49.4,99,90,70,30.08,29.98,14,4,14,0.00
2014-4-10,76.2,58.0,50.0,60.6,53.2,49.7,99,86,52,30.03,29.89,14,2,14,0.00
2014-4-11,60.3,54.0,50.7,54.8,51.7,50.2,99,92,81,29.94,29.86,25,8,25,0.00
2014-4-12,59.3,54.6,52.2,52.2,50.8,49.2,94,87,76,29.94,29.87,26,10,28,0.00
2014-4-13,70.5,58.3,52.2,57.8,52.7,49.5,95,82,62,30.05,29.94,15,4,17,0.00
2014-4-14,66.6,56.9,51.8,56.9,53.1,50.9,99,88,68,30.11,30.01,13,4,15,0.00
2014-4-15,67.3,56.9,50.8,56.8,52.7,50.0,98,87,65,30.06,29.89,13,4,13,0.00
2014-4-16,74.5,61.6,51.5,55.7,51.0,43.9,96,72,36,29.93,29.81,16,2,16,0.00
2014-4-17,75.0,60.6,53.3,59.8,52.2,43.7,94,75,50,29.86,29.79,12,2,12,0.00
2014-4-18,68.3,58.0,50.1,54.5,51.2,47.0,94,79,57,29.93,29.85,16,3,18,0.00
2014-4-19,65.2,55.3,48.1,57.1,51.1,46.3,95,86,67,30.11,29.93,17,4,20,0.00
2014-4-20,76.0,62.0,51.9,58.0,51.1,42.7,98,72,37,30.15,30.05,15,2,16,0.00
2014-4-21,68.5,55.8,51.3,53.8,50.3,44.8,96,82,56,30.07,29.96,20,4,23,0.00
2014-4-22,69.3,56.3,48.8,52.9,43.3,37.0,97,65,35,30.12,29.97,12,1,14,0.00
2014-4-23,74.5,58.3,48.0,51.6,45.0,38.3,83,62,37,30.15,30.07,12,0,12,0.00
2014-4-24,63.2,57.1,52.5,56.8,53.8,49.5,98,89,78,30.11,29.97,20,4,21,0.00
2014-4-25,56.9,52.8,48.6,55.6,51.0,45.2,99,94,71,29.98,29.78,19,4,21,0.12
2014-4-26,67.2,53.5,45.9,48.7,45.0,40.4,91,75,38,30.08,29.84,23,3,23,0.00
2014-4-27,62.6,55.1,51.2,55.8,51.0,44.1,99,87,69,30.13,30.02,21,5,21,0.05
2014-4-28,75.2,60.7,49.9,54.4,46.0,34.9,85,61,32,30.23,30.13,13,1,15,0.00
2014-4-29,89.1,71.0,55.5,55.2,47.4,40.2,77,47,24,30.19,30.04,9,1,10,0.00
2014-4-30,91.5,76.0,62.3,55.4,49.4,41.0,69,41,25,30.07,29.99,12,1,13,0.00
2014-5-1,85.2,74.7,64.3,56.7,46.1,37.1,63,38,20,30.08,30.00,16,2,17,0.00
2014-5-2,73.0,64.6,56.2,56.9,52.4,41.4,91,66,39,30.07,29.99,14,2,16,0.00
2014-5-3,66.2,57.9,51.7,55.2,53.2,50.7,97,85,66,30.03,29.98,25,4,25,0.00
2014-5-4,65.2,58.4,53.4,56.8,53.7,50.5,93,85,71,30.06,30.00,19,3,20,0.00
2014-5-5,64.8,57.7,52.8,55.1,50.7,42.3,94,78,55,30.04,29.92,20,4,21,0.00
2014-5-6,74.5,59.2,49.5,52.0,47.4,43.7,84,67,40,29.94,29.86,18,2,18,0.00
2014-5-7,71.3,58.0,50.8,53.8,49.5,45.1,91,74,47,29.99,29.87,13,2,14,0.00
2014-5-8,58.5,55.6,51.8,57.8,53.2,46.9,99,92,78,30.09,29.98,20,6,21,0.01
2014-5-9,71.0,59.2,54.2,58.1,52.8,42.4,99,81,54,30.15,30.08,19,2,19,0.00
2014-5-10,74.0,60.3,50.9,49.4,46.5,44.0,79,62,39,30.13,30.01,12,0,12,0.00
2014-5-11,84.0,67.6,55.4,47.1,40.9,30.9,71,41,21,30.10,30.00,8,0,10,0.00
2014-5-12,89.3,70.5,56.9,57.5,45.3,29.0,83,45,19,30.11,30.03,13,1,14,0.00
2014-5-13,94.3,76.2,63.6,55.3,44.6,32.9,66,35,17,30.12,30.05,14,2,15,0.00
2014-5-14,90.4,77.6,65.0,57.0,46.2,32.7,70,35,16,30.11,30.03,14,2,14,0.00
2014-5-15,86.6,74.7,61.8,57.7,46.8,31.4,58,38,21,30.08,30.02,7,1,8,0.00
2014-5-16,77.3,63.0,53.1,57.6,52.9,42.0,92,72,47,30.06,29.97,11,2,11,0.00
2014-5-17,68.5,60.8,53.5,56.8,52.8,42.6,95,76,46,29.98,29.92,16,2,16,0.00
2014-5-18,71.5,63.2,56.3,58.4,51.3,43.4,90,66,47,29.98,29.92,16,2,17,0.00
2014-5-19,65.8,59.0,54.2,55.0,51.3,45.3,89,76,57,29.95,29.91,26,5,26,0.00
2014-5-20,66.0,58.0,51.6,55.7,52.7,49.1,93,83,65,30.00,29.92,21,4,21,0.00
2014-5-21,67.5,57.4,52.7,56.6,53.4,51.6,97,87,64,29.97,29.90,23,8,25,0.00
2014-5-22,61.6,55.1,51.5,55.8,52.8,50.7,98,92,80,30.02,29.90,21,9,23,0.00
2014-5-23,63.4,56.6,51.4,57.1,53.9,50.8,99,91,78,30.03,29.92,21,8,21,0.00
2014-5-24,68.5,60.1,52.9,58.4,54.3,50.9,96,82,69,30.00,29.91,17,4,17,0.00
2014-5-25,84.7,64.2,51.9,57.8,52.7,48.1,97,70,37,29.98,29.90,11,2,11,0.00
2014-5-26,84.8,65.6,53.6,60.5,53.1,37.7,92,67,34,30.01,29.93,8,1,8,0.00
2014-5-27,84.2,63.7,51.3,56.0,49.2,37.7,91,62,37,30.03,29.96,9,1,9,0.00
2014-5-28,83.2,67.1,53.7,49.1,42.2,34.9,57,41,24,30.06,29.94,5,0,7,0.00
2014-5-29,76.5,64.1,52.5,56.2,48.9,42.1,88,60,32,29.94,29.88,19,3,20,0.00
2014-5-30,58.9,53.9,50.0,53.5,50.8,48.5,96,90,80,29.95,29.88,25,9,28,0.00
2014-5-31,63.5,55.1,50.4,54.6,51.8,49.6,98,89,70,29.98,29.91,13,6,17,0.00
2014-6-1,64.7,55.5,50.7,56.4,52.3,49.6,98,90,71,29.92,29.80,16,7,18,0.00
2014-6-2,57.4,53.4,51.0,54.0,51.9,50.5,98,94,87,29.91,29.82,28,11,28,0.00
2014-6-3,62.6,54.9,50.6,55.4,52.3,49.5,97,91,76,29.95,29.87,19,8,22,0.00
2014-6-4,69.6,57.0,51.3,57.3,52.9,50.6,98,87,61,29.91,29.82,18,6,18,0.00
2014-6-5,61.3,56.0,51.3,56.7,53.9,50.5,98,93,82,29.87,29.80,28,11,28,0.00
2014-6-6,62.2,55.7,51.8,56.7,53.8,51.2,99,94,81,29.85,29.80,27,12,27,0.00
2014-6-7,67.3,56.6,51.4,57.3,53.5,50.8,98,90,70,29.85,29.78,17,8,18,0.00
2014-6-8,90.3,70.2,53.4,62.7,56.3,52.3,98,66,33,29.83,29.72,12,2,13,0.00
2014-6-9,79.0,65.7,56.4,59.8,56.1,53.3,97,72,47,29.75,29.67,20,6,21,0.00
2014-6-10,62.4,57.4,55.1,58.1,55.9,54.5,98,95,85,29.82,29.70,30,15,32,0.00
2014-6-11,62.2,57.7,53.7,57.6,55.5,52.2,98,93,82,29.90,29.80,33,14,33,0.00
2014-6-12,66.8,58.5,51.9,56.7,53.4,50.8,98,84,65,29.97,29.89,24,9,25,0.00
2014-6-13,81.2,64.1,52.8,56.6,53.0,49.0,96,70,35,29.98,29.90,12,2,13,0.00
2014-6-14,77.5,63.4,55.2,59.3,53.5,50.1,92,72,43,29.92,29.80,19,3,19,0.00
2014-6-15,69.7,59.8,52.3,56.4,53.3,49.8,92,80,59,29.82,29.76,16,3,18,0.00
2014-6-16,69.0,59.2,51.9,54.9,51.5,49.2,94,77,59,29.88,29.80,16,3,17,0.00
2014-6-17,74.8,62.6,50.8,53.3,47.4,38.8,92,63,30,29.96,29.86,20,4,21,0.00
2014-6-18,81.1,67.3,56.9,54.2,49.8,42.8,83,56,31,29.94,29.89,18,3,21,0.00
2014-6-19,67.8,59.7,51.6,55.9,53.3,50.2,96,80,60,29.98,29.91,22,6,23,0.00
2014-6-20,85.2,64.9,53.5,61.7,54.3,48.3,97,72,34,29.99,29.90,11,2,11,0.00
2014-6-21,72.3,60.6,52.5,57.0,53.1,50.2,93,78,56,29.91,29.85,13,3,14,0.00
2014-6-22,66.5,57.5,51.4,55.5,52.8,50.0,96,85,64,29.94,29.87,21,6,21,0.00
2014-6-23,73.2,60.6,52.1,58.5,53.9,51.3,98,80,56,29.96,29.89,14,4,15,0.00
2014-6-24,83.5,66.5,55.2,60.0,55.6,52.2,92,71,39,29.98,29.92,8,1,8,0.00
2014-6-25,69.4,60.4,56.2,61.2,57.7,54.4,98,91,74,29.99,29.92,20,4,20,0.00
2014-6-26,66.3,60.5,56.6,59.3,57.4,56.0,98,90,74,29.99,29.94,22,6,23,0.00
2014-6-27,69.5,62.1,56.0,64.0,59.4,55.3,98,91,77,29.99,29.92,21,5,21,0.00
2014-6-28,82.6,65.9,56.7,61.6,57.3,54.1,96,76,41,29.95,29.88,15,2,16,0.00
2014-6-29,84.0,68.6,55.3,58.9,55.6,52.7,95,67,36,29.93,29.81,17,2,19,0.00
2014-6-30,79.5,66.1,57.3,58.9,55.9,52.9,96,71,45,29.82,29.77,26,9,27,0.00
2014-7-1,61.6,57.1,54.3,58.3,56.0,53.8,99,96,88,29.85,29.77,28,14,29,0.00
2014-7-2,66.4,58.9,53.8,59.3,56.4,53.3,99,92,77,29.89,29.82,24,8,24,0.00
2014-7-3,67.9,58.5,53.8,58.8,55.3,52.9,98,90,70,29.94,29.86,25,8,25,0.00
2014-7-4,65.6,57.8,53.7,58.2,55.0,53.2,98,90,75,29.99,29.89,19,6,21,0.00
2014-7-5,69.8,59.8,53.6,59.1,55.3,52.9,98,86,64,30.08,29.99,17,5,17,0.00
2014-7-6,71.0,60.3,52.2,59.6,55.4,51.5,98,85,65,30.05,29.92,14,4,16,0.00
2014-7-7,74.0,59.6,53.9,60.4,56.2,53.0,98,89,62,29.93,29.83,17,6,20,0.00
2014-7-8,64.1,58.3,55.5,59.5,56.6,54.9,99,94,84,29.92,29.84,28,11,30,0.00
2014-7-9,63.9,58.6,55.9,59.0,56.9,55.4,99,94,83,29.96,29.86,27,12,28,0.00
2014-7-10,65.5,60.4,56.8,60.0,57.9,56.2,98,92,80,29.94,29.88,24,12,26,0.00
2014-7-11,66.0,60.5,57.0,59.7,57.5,56.2,98,90,78,30.07,29.93,20,9,22,0.00
2014-7-12,69.5,62.0,56.4,61.0,58.1,55.2,97,87,73,30.09,30.01,19,4,20,0.00
2014-7-13,77.4,62.3,55.4,62.7,58.0,54.8,98,87,60,30.02,29.87,11,3,12,0.00
2014-7-14,72.5,62.8,56.9,61.0,58.1,55.8,97,85,65,29.93,29.84,26,7,26,0.00
2014-7-15,72.0,63.3,56.9,65.3,60.8,56.0,98,92,78,30.01,29.90,25,10,26,0.00
2014-7-16,68.7,62.4,60.1,62.5,60.3,59.1,99,93,80,30.03,29.96,27,11,28,0.00
2014-7-17,65.3,61.0,59.4,61.5,59.6,58.2,99,95,85,30.02,29.94,28,10,30,0.00
2014-7-18,67.3,61.6,58.9,61.0,59.3,58.3,99,92,79,30.03,29.94,22,7,23,0.00
2014-7-19,68.7,61.9,59.2,62.1,59.9,58.3,98,93,78,29.96,29.92,28,8,31,0.00
2014-7-20,67.2,61.6,58.6,63.0,60.2,58.1,99,95,86,30.00,29.91,24,9,24,0.00
2014-7-21,69.8,63.6,60.9,63.9,61.4,59.3,98,93,79,30.07,29.97,20,6,23,0.01
2014-7-22,70.3,64.3,59.4,63.2,61.0,58.5,97,90,74,30.10,29.98,21,6,22,0.01
2014-7-23,72.7,67.0,63.0,65.6,63.1,60.7,97,88,77,30.14,30.02,20,4,21,0.00
2014-7-24,86.3,70.7,59.3,65.5,59.9,54.1,99,73,40,30.03,29.82,14,2,14,0.00
2014-7-25,91.0,72.7,60.0,63.4,58.3,54.2,92,64,34,29.88,29.81,15,3,17,0.00
2014-7-26,74.0,64.7,58.5,61.8,58.8,57.0,95,82,60,29.94,29.85,22,6,22,0.00
2014-7-27,77.2,63.8,58.1,62.9,59.1,56.8,97,86,57,29.99,29.91,23,7,23,0.00
2014-7-28,67.3,61.0,57.2,60.6,58.1,56.6,98,91,77,30.05,29.97,26,10,26,0.00
2014-7-29,75.2,63.5,56.8,61.3,58.6,56.1,99,85,57,30.05,29.96,21,6,21,0.00
2014-7-30,73.7,61.3,57.0,62.5,58.7,56.7,99,92,68,30.01,29.93,18,6,19,0.00
2014-7-31,69.8,60.9,56.8,61.7,58.4,56.5,99,92,74,29.98,29.87,15,6,17,0.00
2014-8-1,71.1,62.5,57.7,61.6,59.2,56.8,99,90,71,29.92,29.85,19,5,19,0.00
2014-8-2,66.3,59.1,56.2,60.5,57.5,55.9,99,95,80,29.95,29.88,21,10,23,0.00
2014-8-3,63.9,58.2,56.0,58.8,57.0,55.7,99,96,82,29.98,29.91,24,10,29,0.00
2014-8-4,67.3,60.1,56.5,61.3,58.4,56.2,99,94,80,30.00,29.93,21,7,22,0.00
2014-8-5,68.2,63.4,59.1,63.7,60.8,58.2,98,92,84,30.07,29.99,18,3,19,0.00
2014-8-6,74.5,65.8,58.4,66.0,61.9,57.5,98,88,69,30.02,29.93,21,5,21,0.00
2014-8-7,66.1,60.4,57.4,60.8,58.3,57.0,99,93,82,29.97,29.88,22,8,23,0.00
2014-8-8,68.2,61.5,56.4,60.7,57.6,55.6,98,88,76,29.93,29.85,17,6,17,0.00
2014-8-9,61.9,57.2,55.5,57.8,55.4,54.5,97,93,86,29.97,29.87,26,10,28,0.00
2014-8-10,65.8,60.1,56.4,60.4,57.9,55.3,98,93,82,30.01,29.93,26,9,26,0.00
2014-8-11,68.5,62.6,59.3,61.0,59.1,57.6,96,89,76,29.97,29.89,22,8,26,0.00
2014-8-12,68.5,62.6,59.5,60.9,58.7,56.9,93,87,75,30.00,29.91,20,8,23,0.00
2014-8-13,70.3,63.0,57.8,62.1,59.1,56.6,96,87,73,30.01,29.92,18,6,19,0.00
2014-8-14,69.7,60.7,56.4,60.8,58.2,55.8,99,92,72,29.97,29.89,21,7,23,0.00
2014-8-15,71.0,61.6,58.0,62.0,59.1,57.0,99,92,72,30.01,29.93,22,7,22,0.00
2014-8-16,69.9,61.1,56.8,62.1,58.4,56.2,98,91,75,30.05,29.96,22,6,22,0.00
2014-8-17,67.8,60.4,56.2,61.7,58.3,55.4,99,93,77,30.03,29.91,18,6,20,0.00
2014-8-18,62.9,58.8,57.0,59.9,58.0,56.7,99,97,89,29.91,29.80,24,10,26,0.00
2014-8-19,64.5,60.6,57.5,61.3,59.5,57.2,99,96,87,29.87,29.81,23,9,25,0.00
2014-8-20,65.3,61.7,58.9,61.3,60.0,58.3,98,94,84,29.95,29.84,24,9,26,0.00
2014-8-21,71.2,62.7,58.6,63.6,60.3,58.0,99,92,76,29.97,29.89,21,6,22,0.00
2014-8-22,67.2,61.6,58.5,62.0,59.8,58.0,99,94,81,29.94,29.88,26,10,26,0.00
2014-8-23,69.7,62.6,59.1,61.9,59.1,57.1,96,89,74,29.96,29.85,26,9,26,0.00
2014-8-24,69.2,62.6,58.5,61.4,58.7,56.7,95,87,74,29.91,29.81,24,9,24,0.00
2014-8-25,67.6,62.5,60.3,60.2,58.5,57.5,93,87,74,29.95,29.83,25,9,26,0.00
2014-8-26,72.5,64.5,59.4,62.0,59.2,56.5,93,84,68,30.01,29.93,18,6,19,0.00
2014-8-27,78.2,65.9,58.7,64.3,60.7,57.8,97,85,60,30.06,29.98,19,4,19,0.00
2014-8-28,74.0,63.3,58.1,63.9,59.9,57.5,99,90,69,30.06,29.92,14,5,17,0.00
2014-8-29,69.9,63.0,58.3,64.1,60.2,54.5,99,91,65,29.95,29.87,19,5,21,0.00
2014-8-30,83.8,69.7,60.5,64.6,60.5,55.0,97,75,48,29.92,29.83,11,2,11,0.00
2014-8-31,80.3,66.6,59.3,63.0,59.9,55.2,96,80,51,29.92,29.81,13,3,13,0.00
2014-9-1,85.0,69.0,58.6,64.0,59.1,55.6,97,75,39,29.84,29.74,15,4,17,0.00
2014-9-2,64.8,60.6,58.2,60.7,59.0,57.3,98,94,85,29.84,29.76,26,11,30,0.00
2014-9-3,70.5,62.4,58.8,62.4,59.6,57.9,98,91,75,29.81,29.70,20,8,26,0.00
2014-9-4,68.2,61.8,59.2,62.1,59.5,58.0,97,92,80,29.79,29.70,25,10,28,0.00
2014-9-5,66.3,61.2,59.1,60.4,58.5,57.3,96,91,80,29.91,29.79,23,10,26,0.00
2014-9-6,69.0,61.7,57.4,60.0,57.3,55.1,95,86,70,29.97,29.87,21,7,24,0.00
2014-9-7,69.5,60.7,53.9,60.0,56.1,52.5,97,85,68,29.91,29.79,17,4,19,0.00
2014-9-8,65.8,58.8,53.9,57.5,54.8,52.3,95,87,73,29.94,29.84,20,6,23,0.00
2014-9-9,71.5,61.5,56.6,61.2,57.7,54.9,96,88,69,30.00,29.89,13,3,15,0.00
2014-9-10,96.1,67.3,57.0,66.2,59.4,56.2,98,80,27,29.95,29.82,12,2,12,0.01
2014-9-11,85.0,66.5,56.8,65.3,59.2,56.0,98,80,42,29.90,29.81,11,2,12,0.00
2014-9-12,83.8,65.9,57.0,62.9,59.5,56.2,98,82,45,29.89,29.78,10,2,10,0.00
2014-9-13,76.0,63.6,58.4,62.8,59.7,57.5,98,88,59,29.85,29.76,16,4,18,0.00
2014-9-14,76.0,64.9,58.6,62.4,58.8,55.5,96,82,54,29.86,29.79,21,5,25,0.00
2014-9-15,75.7,65.2,57.9,62.8,59.1,56.5,97,82,57,29.92,29.82,17,4,17,0.00
2014-9-16,78.5,67.1,59.6,63.9,60.6,56.7,95,81,55,29.93,29.79,15,3,16,0.00
2014-9-17,73.0,66.1,60.3,66.1,61.6,59.0,97,86,70,29.82,29.73,27,8,30,0.00
2014-9-18,71.2,67.3,62.0,67.9,65.1,61.1,98,93,81,29.88,29.76,20,7,23,0.06
2014-9-19,70.2,63.9,60.1,65.8,62.5,59.5,98,95,86,29.92,29.84,18,5,22,0.00
2014-9-20,68.5,63.4,61.3,64.1,62.0,60.8,99,95,84,29.94,29.87,24,9,25,0.00
2014-9-21,67.8,64.2,62.4,63.5,61.8,60.7,95,92,84,30.01,29.92,19,6,22,0.00
2014-9-22,75.9,66.3,60.6,64.0,61.1,57.3,96,84,65,30.03,29.94,15,2,17,0.00
2014-9-23,74.0,65.7,59.2,66.8,62.3,57.0,96,89,75,30.00,29.91,16,4,18,0.00
2014-9-24,73.0,67.2,62.6,67.2,64.8,61.7,98,92,79,29.95,29.87,15,5,19,0.00
2014-9-25,70.8,63.3,58.1,63.0,60.6,57.2,98,91,73,30.01,29.89,14,3,15,0.45
2014-9-26,74.9,64.8,58.6,63.6,59.9,56.1,97,85,59,30.00,29.89,15,1,17,0.01
2014-9-27,74.0,64.9,59.2,62.3,58.4,55.7,95,81,58,29.92,29.81,18,2,18,0.00
2014-9-28,68.0,62.9,59.4,62.1,59.7,57.7,96,90,78,29.96,29.80,16,5,18,0.00
2014-9-29,68.8,61.6,57.7,61.9,59.0,57.1,98,91,78,30.03,29.94,18,4,21,0.00
2014-9-30,73.9,64.9,58.0,63.1,59.8,55.4,98,85,64,29.97,29.83,7,2,10,0.00
2014-10-1,91.4,73.4,61.2,59.6,48.3,36.6,90,46,17,29.92,29.84,10,1,11,0.00
2014-10-2,93.8,75.5,60.6,56.1,48.2,38.4,79,42,18,30.03,29.92,4,1,4,0.00
2014-10-3,96.9,78.6,65.3,53.5,43.4,30.2,53,32,10,30.08,29.99,5,0,7,0.00
2014-10-4,97.0,78.9,67.0,51.3,43.4,32.6,56,30,14,30.02,29.90,9,1,10,0.00
2014-10-5,98.2,76.8,63.7,60.1,49.9,38.5,74,41,21,29.95,29.85,10,1,12,0.00
2014-10-6,91.3,70.9,58.4,64.3,57.1,50.2,95,65,33,29.92,29.83,11,1,11,0.00
2014-10-7,76.1,63.6,54.5,62.0,57.0,53.4,97,80,56,29.92,29.83,10,1,10,0.00
2014-10-8,80.0,66.3,56.7,62.8,57.5,52.8,97,76,49,29.92,29.84,9,2,11,0.00
2014-10-9,67.8,60.1,55.3,60.2,57.0,54.2,97,90,74,29.96,29.88,11,2,12,0.00
2014-10-10,67.2,60.1,54.5,59.3,56.5,53.5,97,88,74,30.06,29.97,13,3,14,0.00
2014-10-11,75.7,62.4,54.6,60.6,57.1,53.5,98,84,57,30.07,29.95,8,2,10,0.00
2014-10-12,97.7,77.0,60.6,60.1,45.1,22.2,94,45,7,29.99,29.88,6,0,6,0.00
2014-10-13,78.9,68.9,59.1,59.7,49.9,26.4,97,58,15,29.95,29.88,25,7,28,0.00
2014-10-14,66.8,62.5,59.6,61.0,59.2,57.4,95,89,79,29.93,29.81,29,11,32,0.00
2014-10-15,68.3,62.9,58.6,62.1,59.1,50.2,96,88,67,30.03,29.85,20,5,20,0.01
2014-10-16,71.0,61.3,56.4,60.5,54.3,49.1,96,79,49,30.03,29.93,16,2,16,0.00
2014-10-17,71.3,63.3,57.5,61.8,57.4,53.0,96,82,56,29.98,29.91,16,3,17,0.00
2014-10-18,82.5,67.9,62.2,64.2,60.5,56.6,95,79,45,29.99,29.87,13,2,14,0.00
2014-10-19,73.0,64.1,59.8,67.1,61.1,58.8,98,90,74,29.92,29.84,17,4,21,0.00
2014-10-20,68.0,62.4,58.2,61.8,59.2,52.2,97,89,78,30.06,29.89,16,3,17,0.04
2014-10-21,76.3,62.2,54.0,58.2,52.5,46.0,94,72,43,30.10,30.00,9,0,11,0.00
2014-10-22,72.2,63.2,56.0,61.7,56.0,48.2,92,78,62,30.08,30.00,10,1,11,0.00
2014-10-23,71.7,64.4,60.3,64.2,60.6,57.9,95,88,73,30.07,29.95,9,1,9,0.00
2014-10-24,69.5,63.0,58.6,61.5,58.3,54.7,91,85,67,29.97,29.87,22,4,22,0.00
2014-10-25,67.0,63.1,58.6,62.2,59.5,56.4,97,88,75,30.14,29.86,27,9,29,0.13
2014-10-26,74.2,61.9,52.8,56.3,51.9,47.4,94,72,41,30.17,30.03,5,0,7,0.00
2014-10-27,69.9,60.7,53.5,58.1,52.2,47.0,94,74,56,30.06,30.00,8,1,9,0.00
2014-10-28,74.7,63.1,54.8,58.7,54.0,49.5,95,74,43,30.11,30.04,7,1,9,0.00
2014-10-29,82.8,67.8,57.4,61.1,55.5,51.3,97,69,36,30.10,29.97,4,0,5,0.00
2014-10-30,73.4,64.1,60.4,60.2,57.0,52.6,98,79,56,29.97,29.86,20,4,22,0.00
2014-10-31,61.8,58.9,55.4,59.8,56.7,50.9,98,93,85,29.90,29.71,15,3,17,0.21
2014-11-1,68.2,58.6,54.0,55.3,50.5,47.7,87,75,54,30.03,29.71,18,2,18,0.00
2014-11-2,69.0,58.4,50.9,53.9,48.6,44.4,92,71,47,30.17,30.03,14,1,16,0.00
2014-11-3,69.0,59.1,54.0,58.7,52.0,42.9,94,79,45,30.25,30.16,11,2,12,0.00
2014-11-4,74.9,61.5,54.0,58.1,52.3,42.5,96,75,33,30.32,30.22,5,0,5,0.00
2014-11-5,76.2,64.6,54.7,57.5,53.0,49.2,90,67,46,30.23,30.07,4,0,4,0.00
2014-11-6,79.2,64.9,58.3,60.5,55.2,52.1,92,72,49,30.22,30.13,8,1,9,0.00
2014-11-7,76.9,63.4,57.0,63.7,58.9,55.9,97,86,57,30.22,30.08,4,0,4,0.00
2014-11-8,82.0,66.7,56.1,60.6,56.4,54.0,96,72,42,30.11,30.00,4,0,4,0.00
2014-11-9,78.8,64.1,57.3,62.3,56.6,54.1,94,78,53,30.01,29.81,7,1,7,0.00
2014-11-10,65.7,58.7,56.4,61.7,56.7,55.2,97,93,81,29.84,29.79,22,5,23,0.00
2014-11-11,63.6,58.7,55.4,55.6,53.5,49.4,93,83,68,29.96,29.84,15,5,18,0.00
2014-11-12,65.5,59.4,55.8,54.9,51.3,48.7,95,75,61,30.02,29.95,14,3,16,0.01
2014-11-13,64.3,59.2,55.6,62.2,58.2,54.3,98,97,90,30.07,29.91,7,2,10,0.41
2014-11-14,69.0,59.5,54.9,60.7,55.4,50.5,96,86,61,30.10,30.04,13,1,13,0.01
2014-11-15,69.0,59.3,53.1,57.8,52.9,50.5,95,80,60,30.18,30.08,6,0,7,0.00
2014-11-16,66.2,57.2,52.9,54.0,40.3,30.7,94,56,32,30.26,30.17,6,0,6,0.00
2014-11-17,68.3,57.3,48.4,48.0,41.9,34.2,81,59,32,30.25,30.10,2,0,4,0.00
2014-11-18,64.3,56.9,52.3,50.2,46.9,42.3,81,70,56,30.13,30.04,5,0,5,0.00
2014-11-19,59.8,56.2,52.1,59.1,52.3,41.2,98,88,55,30.14,29.99,14,2,17,0.77
2014-11-20,57.2,55.1,53.3,56.7,54.6,52.8,99,98,97,30.12,29.95,11,1,12,1.06
2014-11-21,60.6,55.9,52.5,60.0,54.5,52.0,99,95,85,30.12,30.03,15,1,15,0.00
2014-11-22,70.3,60.9,54.2,66.0,57.3,48.6,99,89,66,30.24,30.04,23,4,24,0.25
2014-11-23,69.0,56.6,50.7,52.9,47.0,37.4,93,72,33,30.34,30.23,3,0,4,0.00
2014-11-24,69.3,56.5,46.7,52.6,46.9,39.5,96,73,39,30.41,30.31,4,0,4,0.00
2014-11-25,67.8,57.2,50.2,56.8,50.6,46.2,92,79,65,30.45,30.32,5,0,5,0.00
2014-11-26,66.8,58.6,51.8,55.4,51.6,49.5,93,78,62,30.32,30.19,4,0,6,0.00
2014-11-27,68.3,57.9,52.1,55.7,51.5,48.5,93,80,63,30.19,30.04,6,1,6,0.00
2014-11-28,63.7,55.5,49.5,56.3,53.1,48.4,98,92,75,30.05,29.84,13,3,13,0.07
2014-11-29,63.7,58.3,54.5,60.8,57.4,53.7,99,97,88,29.86,29.75,11,3,11,0.50
2014-11-30,62.2,56.2,52.8,59.2,55.0,51.6,98,96,85,30.02,29.73,10,1,10,0.61
2014-12-1,60.9,57.5,55.5,60.2,56.6,55.0,99,97,93,30.12,29.94,6,1,6,0.00
2014-12-2,61.1,57.2,55.3,60.0,56.6,54.6,99,98,95,29.96,29.67,16,2,16,1.73
2014-12-3,62.6,60.5,57.7,61.9,59.7,57.1,99,97,94,29.87,29.68,34,9,37,1.96
2014-12-4,64.9,60.1,57.9,62.0,59.6,57.6,99,98,90,30.01,29.87,15,4,16,0.28
2014-12-5,64.0,60.4,57.4,62.1,59.7,57.1,99,97,91,30.06,29.96,19,4,23,0.16
2014-12-6,64.5,60.0,57.0,63.4,59.3,56.7,99,98,92,30.22,30.06,17,2,18,0.37
2014-12-7,64.1,59.0,56.4,61.8,58.3,56.1,99,97,88,30.21,30.10,8,1,9,0.01
2014-12-8,67.5,59.9,56.9,61.7,58.2,56.1,98,93,80,30.18,30.11,14,1,14,0.00
2014-12-9,60.7,59.1,56.9,60.4,58.7,56.6,99,99,98,30.20,30.06,3,0,3,0.01
2014-12-10,63.2,59.7,56.7,60.2,58.3,56.4,99,95,87,30.06,29.68,24,5,24,0.01
2014-12-11,63.9,56.5,50.8,59.7,55.4,50.5,99,97,85,29.70,29.48,30,8,35,3.25
2014-12-12,58.4,51.7,49.1,55.2,51.0,48.8,100,97,84,30.08,29.64,7,1,8,0.37
2014-12-13,56.3,51.6,49.4,54.3,50.5,48.5,99,96,89,30.23,30.08,2,0,3,0.00
2014-12-14,59.4,52.3,48.7,52.3,49.6,47.7,98,91,74,30.15,29.98,3,0,3,0.23
2014-12-15,54.7,52.2,49.5,54.1,51.8,49.2,99,98,96,29.98,29.81,13,2,13,2.41
2014-12-16,59.2,53.7,49.8,55.7,52.4,48.9,99,95,79,29.94,29.80,29,4,32,2.22
2014-12-17,56.9,52.8,50.9,56.1,51.7,49.5,99,96,83,30.08,29.93,15,3,15,0.35
2014-12-18,63.2,54.2,50.9,57.7,52.9,50.3,99,95,78,30.19,30.05,10,2,11,0.08
2014-12-19,56.7,55.5,54.3,56.7,55.4,53.8,100,100,97,30.16,30.08,19,4,19,1.11
2014-12-20,59.8,56.6,54.1,59.8,56.4,54.1,100,99,96,30.24,30.12,16,3,18,0.03
2014-12-21,67.8,60.9,57.6,66.1,60.1,57.0,100,97,83,30.31,30.22,11,1,11,0.01
2014-12-22,68.8,59.2,54.9,63.0,57.6,54.6,99,95,79,30.29,30.17,5,0,5,0.00
2014-12-23,72.7,60.3,53.9,58.9,55.5,53.3,99,86,58,30.22,30.11,3,0,3,0.01
2014-12-24,59.4,54.2,46.7,56.7,51.2,39.4,99,90,74,30.11,29.95,21,2,21,0.05
2014-12-25,62.4,51.7,44.7,47.1,40.2,36.9,77,65,45,30.16,30.07,8,1,8,0.00
2014-12-26,64.1,53.2,47.8,40.3,36.2,31.6,67,53,35,30.26,30.09,8,1,8,0.00
2014-12-27,58.1,48.4,41.6,46.5,41.0,33.5,92,77,53,30.38,30.25,2,0,3,0.00
2014-12-28,61.6,49.9,43.2,51.1,46.0,41.8,96,87,60,30.37,30.23,10,1,10,0.00
2014-12-29,58.7,48.0,43.9,48.0,44.6,39.4,98,88,64,30.23,30.10,4,0,4,0.00
2014-12-30,55.6,48.4,42.2,41.4,31.8,23.9,86,55,37,30.26,30.10,17,2,18,0.00
2014-12-31,62.9,51.2,43.4,26.1,21.2,14.4,45,31,19,30.26,30.05,10,1,12,0.00
2015-1-1,58.9,47.3,39.5,37.9,31.8,22.7,84,56,35,30.16,30.06,3,0,3,0.00
2015-1-2,57.7,45.9,38.8,42.9,38.1,33.9,95,75,47,30.22,30.11,4,0,5,0.00